sat.trackr.live / text

‹ back to catalog

KUIPER-00590

NORAD 69276 · 2026-118K

PAYLOAD ACTIVE UNKNOWN

§ Identity

Operator
Country
US
Launch date
2026-05-29
Launch site
AFETR
Launch vehicle
Mass (kg)
RCS (m²)

External: N2YO · Heavens-Above · Gunter

§ Orbital elements

Epoch: 2026-09-18T06:17:44.042784Z

Period
97.30 min
Inclination
51.9034°
Eccentricity
0.0000541
Mean motion
14.79935604 rev/d
Perigee alt
629.1 km
Apogee alt
629.9 km
Semi-major
7,007.7 km
B*
2.9490e-4
RAAN
349.0972°
Arg perigee
129.8640°
Mean anomaly
230.2370°
Rev number
1,794

§ Raw data

KUIPER-005901 69276U 26118K   26261.26231531  .00002028  00000+0  29490-3 0  99962 69276  51.9034 349.0972 0000541 129.8640 230.2370 14.79935604 17944

JSON: /api/v1/satellites/69276 · /tle

For live sub-satellite position, see the globe view (requires WebGL).

§ Visibility from observer

Set your observer location to see the next 7 days of passes ≥ 10°. The values pass through the URL so the page stays shareable.

No JS? Fill the form by hand. The geolocation button needs JavaScript.